Location: Sungai Ketit
(2.6833°N, 113.2333°E)
Time: 19:03:21
(UTC+00:00)

OAO 3 Rocket - Pass Details

Date: 23 May 2024
Orbit: 622 x 671 km, 35.0° (Epoch: 19 June)

Event Time Altitude Azimuth Distance (km) Brightness Sun altitude
Rises 11:35:45 0° 220° (SW) 2,918 6.7 -15.8°
Reaches altitude 10° 11:38:12 10° 212° (SSW) 2,018 5.8 -16.3°
Maximum altitude 11:42:37 40° 143° (SE) 945 3.6 -17.3°
Enters shadow 11:43:47 34° 108° (ESE) 1,060 3.7 -17.6°
